SCP
0 1 1 1 1 1 1 1 1 1 1 1 0 0 0 0 0 0 0 0 0 0 0 0 0 0 0 0 0 0 0 0 0 0 0 0 0 0 0 0 0 0 0
0 1 1 2 2 1 1 1 1 1 1 1 1 0 0 0 0 0 0 0 0 0 0 0 0 0 0 0 0 0 0 0 0 0 0 0 0 0 0 0 0 0 0
0 1 1 2 2 2 1 1 1 1 1 1 1 1 0 0 0 0 0 0 0 0 0 0 0 0 0 0 0 0 0 0 0 0 0 0 0 0 0 0 0 0 0
0 1 1 2 2 2 2 1 1 1 1 1 1 1 0 0 0 0 0 0 0 0 0 0 0 0 0 0 0 0 0 0 0 0 0 0 0 0 0 0 0 0 0
0 1 1 2 2 2 2 1 1 1 1 1 1 1 0 0 0 0 0 0 0 0 0 0 0 0 0 0 0 0 0 0 0 0 0 0 0 0 0 0 0 0 0
0 1 1 2 2 2 2 2 1 1 1 1 1 1 0 0 0 0 0 0 0 0 0 0 0 0 0 0 0 0 0 0 0 0 0 0 0 0 0 0 0 0 0
0 1 1 2 2 2 2 2 1 1 1 1 1 1 0 0 0 0 0 0 0 0 0 0 0 0 0 0 0 0 0 0 0 0 0 0 0 0 0 0 0 0 0
0 1 1 1 2 2 2 2 1 1 1 1 1 0 0 0 0 0 0 0 0 0 0 0 0 0 0 0 0 0 0 0 0 0 0 0 0 0 0 0 0 0 0
0 1 1 1 1 1 1 1 1 1 1 1 1 0 0 0 0 0 0 0 0 0 0 0 0 0 0 0 0 0 0 0 0 0 0 0 0 0 0 0 0 0 0
0 1 1 1 1 1 1 1 1 1 1 1 1 0 0 0 0 0 0 0 0 0 0 0 0 0 0 0 0 0 0 0 0 0 0 0 0 0 0 0 0 0 0
0 1 1 1 1 1 1 1 1 1 1 1 0 0 0 0 0 0 0 0 0 0 0 0 0 0 0 0 0 0 0 0 0 0 0 0 0 0 0 0 0 0 0
0 0 1 1 1 1 1 1 1 1 1 1 0 0 0 0 0 0 0 0 0 0 0 0 0 0 0 0 0 0 0 0 0 0 0 0 0 0 0 0 0 0 0
0 0 1 1 1 1 1 1 1 1 1 1 0 0 0 0 0 0 0 0 0 0 0 0 0 0 0 0 0 0 0 0 0 0 0 0 0 0 0 0 0 0 0
0 0 1 1 1 1 1 1 1 1 1 1 0 0 0 0 0 0 0 0 0 0 0 0 0 0 0 0 0 0 0 0 0 0 0 0 0 0 0 0 0 0 0
0 0 0 1 1 1 1 1 1 1 1 1 0 0 0 0 0 0 0 0 0 0 0 0 0 0 0 0 0 0 0 0 0 0 0 0 0 0 0 0 0 0 0
0 0 0 1 1 1 1 1 1 1 1 1 0 0 0 0 0 0 0 0 0 0 0 0 0 0 0 0 0 0 0 0 0 0 0 0 0 0 0 0 0 0 0
0 0 0 0 1 1 1 1 1 1 1 1 0 0 0 0 0 0 0 0 0 0 0 0 0 0 0 0 0 0 0 0 0 0 0 0 0 0 0 0 0 0 0
0 0 0 0 1 1 1 1 1 1 1 0 0 0 0 0 0 0 0 0 0 0 0 0 0 0 0 0 0 0 0 0 0 0 0 0 0 0 0 0 0 0 0
0 0 0 0 0 1 1 1 1 1 0 0 0 0 0 0 0 0 0 0 0 0 0 0 0 0 0 0 0 0 0 0 0 0 0 0 0 0 0 0 0 0 0
0 0 0 0 0 0 1 1 1 0 0 0 0 0 0 0 0 0 0 0 0 0 0 0 0 0 0 0 0 0 0 0 0 0 0 0 0 0 0 0 0 0 0
0 0 0 0 0 0 1 1 1 0 0 0 0 0 0 0 0 0 0 0 0 0 0 0 0 0 0 0 0 0 0 0 0 0 0 0 0 0 0 0 0 0 0
0 0 0 0 0 0 0 1 0 0 0 0 0 0 0 0 0 0 0 0 0 0 0 0 0 0 0 0 0 0 0 0 0 0 0 0 0 0 0 0 0 0 0
0 0 0 0 0 0 0 0 0 0 0 0 0 0 0 0 0 0 0 0 0 0 0 0 0 0 0 0 0 0 0 0 0 0 0 0 0 0 0 0 0 0 0
0 0 0 0 0 0 0 0 0 0 0 0 0 0 0 0 0 0 0 0 0 0 0 0 0 0 0 0 0 0 0 0 0 0 0 0 0 0 0 0 0 0 0
0 0 0 0 0 0 0 0 0 0 0 0 0 0 0 0 0 0 0 0 0 0 0 0 0 0 0 0 0 0 0 0 0 0 0 0 0 0 0 0 0 0 0
0 0 0 0 0 0 0 0 0 0 0 0 0 0 0 0 0 0 0 0 0 0 0 0 0 0 0 0 0 0 0 0 0 0 0 0 0 0 0 0 0 0 0
Wind_Speed
11 17 21 22 22 21 20 19 19 18 18 18 18 18 17 16 16 16 15 15 15 15 16 16 15 15 16 16 16 15 15 14 14 14 14 14 13 14 13 11 10 12 15
12 19 22 21 22 21 20 20 19 18 18 18 18 18 17 17 16 16 16 15 15 15 16 16 15 15 16 16 15 15 15 14 14 13 11 12 13 13 13 13 13 12 15
13 19 22 21 22 21 20 20 19 19 18 18 18 18 17 17 16 16 15 15 15 15 16 15 15 15 16 15 15 14 14 14 13 10 7 9 11 13 14 14 15 15 15
13 17 20 21 21 21 21 20 20 19 18 18 18 18 18 17 17 16 16 15 15 15 15 15 15 15 15 15 15 14 13 13 11 6 7 9 9 13 14 15 15 15 15
13 16 18 21 22 22 21 21 20 20 19 19 18 18 18 17 17 16 16 16 16 16 15 15 15 15 15 15 14 13 13 11 8 7 9 8 9 12 14 14 15 14 15
13 16 18 20 22 22 21 21 20 20 19 19 18 18 18 17 17 17 16 16 16 16 15 15 15 14 14 14 14 13 12 8 7 8 8 8 9 12 14 14 14 14 15
12 14 18 20 21 21 21 21 21 20 20 19 18 18 18 17 17 17 16 16 16 16 15 15 14 14 14 14 13 12 10 5 7 8 8 8 10 12 13 13 14 14 14
11 14 16 20 20 20 21 21 21 21 20 19 19 18 18 18 17 17 16 16 16 16 15 15 14 14 14 13 13 12 9 4 8 8 8 9 11 12 13 12 13 13 13
10 12 14 18 19 19 19 20 20 20 19 19 19 18 18 18 18 18 17 16 16 15 15 15 14 14 14 13 12 11 8 3 6 6 7 7 9 11 11 12 11 12 12
9 12 14 16 18 18 18 19 19 18 18 18 17 16 16 16 16 17 16 15 15 15 15 14 14 14 13 12 12 10 6 3 7 7 5 7 9 10 11 11 11 11 12
10 12 13 15 16 16 16 17 18 17 17 17 15 16 15 13 14 13 13 14 15 15 15 14 13 14 13 12 11 8 4 4 6 5 6 8 8 10 11 11 11 10 11
13 13 13 14 15 15 13 14 14 14 15 14 14 16 12 11 9 10 13 12 13 13 13 13 13 13 9 8 8 6 4 5 5 5 6 6 8 9 10 10 9 9 9
13 13 14 13 13 14 11 11 9 8 10 12 15 15 11 10 8 9 8 9 10 11 10 11 11 7 6 6 5 5 5 4 3 4 6 5 7 8 9 8 8 8 8
13 14 14 14 13 13 12 10 10 9 9 9 12 15 11 8 8 8 7 8 8 6 8 8 6 8 7 7 7 6 6 3 3 3 5 6 6 7 7 7 7 6 6
14 14 14 14 14 12 11 10 11 11 11 11 10 12 13 10 10 9 7 7 8 7 8 7 7 8 7 7 6 6 6 5 4 4 4 6 5 5 6 5 5 5 5
15 15 14 15 15 13 11 11 10 11 10 11 11 13 14 11 10 10 9 8 8 8 7 7 8 7 6 6 6 6 5 5 4 4 4 5 5 4 4 4 3 3 3
15 14 15 15 15 15 14 13 10 10 11 11 11 13 14 12 12 10 9 9 8 8 9 7 8 6 5 5 6 6 4 4 4 4 4 3 4 4 3 2 2 1 1
15 14 14 12 14 15 14 13 10 11 11 11 11 12 15 14 14 11 9 9 9 8 8 7 7 7 6 6 5 5 4 3 4 4 3 3 3 2 3 2 1 0 0
15 14 13 13 14 15 14 12 11 11 11 11 11 11 13 15 15 11 9 9 10 8 8 7 7 7 7 6 5 4 4 4 4 4 4 4 3 3 2 3 2 0 2
14 14 14 13 13 13 11 10 9 11 11 10 11 12 15 14 15 12 9 11 11 9 8 9 9 7 6 5 5 4 3 3 4 4 4 4 4 4 3 3 3 2 1
13 14 14 13 14 11 10 11 11 11 11 10 11 14 16 15 16 13 10 12 11 10 10 11 9 9 7 6 5 4 4 4 5 4 4 4 5 4 4 4 3 3 2
12 14 15 14 14 14 11 11 10 11 10 10 10 13 16 16 16 13 14 11 12 10 12 12 10 8 6 6 5 4 4 5 5 5 4 4 5 4 4 4 4 4 3
12 13 12 15 15 15 14 10 9 9 8 9 12 12 15 17 17 15 16 13 13 12 11 12 12 11 8 8 6 4 3 3 3 5 6 5 5 5 4 4 5 4 4
11 11 12 13 15 15 15 13 15 12 11 11 11 12 14 17 17 16 16 15 14 12 12 13 13 10 10 8 7 5 3 1 2 3 4 5 5 5 5 4 4 4 4
10 10 10 11 14 15 16 16 16 14 12 10 12 14 15 15 16 17 16 15 14 12 14 14 13 12 10 9 7 6 5 3 4 3 3 4 4 4 4 4 4 4 4
7 8 9 11 13 13 15 17 18 18 16 15 15 14 13 12 13 18 17 16 15 13 14 14 13 14 11 11 9 7 6 5 5 4 4 4 3 3 4 4 4 3 3
Wind_Direction
172 169 168 168 164 162 160 156 153 151 149 147 145 142 138 135 131 128 124 121 120 118 116 112 111 108 104 100 97 93 89 86 83 81 82 81 83 83 79 75 75 75 70
166 168 166 168 165 163 161 158 154 151 151 149 146 143 140 136 134 131 128 125 123 121 118 115 113 110 107 102 98 95 91 88 84 81 84 86 81 82 79 73 67 73 70
167 169 168 169 165 164 162 158 154 152 152 150 146 143 141 139 137 135 133 130 126 122 119 116 114 112 109 105 100 97 93 89 85 83 91 90 84 79 78 77 75 72 70
171 172 171 168 166 165 162 159 156 155 153 151 147 145 143 142 140 137 135 133 129 125 121 118 115 113 110 107 102 99 95 91 86 91 89 83 82 80 79 78 74 72 70
176 176 169 166 168 166 163 160 158 157 155 152 150 148 147 145 142 139 135 133 129 126 123 121 118 115 112 108 105 101 98 93 94 93 85 82 79 81 80 77 74 73 72
180 178 168 169 170 167 165 161 160 159 156 154 152 151 150 147 144 139 135 133 131 129 127 123 119 117 115 112 108 104 101 103 115 90 87 83 82 82 79 79 76 75 75
182 180 172 171 172 169 166 163 161 160 158 157 156 154 151 148 144 140 137 136 134 133 131 127 124 122 119 115 111 107 102 92 96 95 90 83 81 82 82 81 78 76 74
184 182 176 173 173 171 168 165 162 161 160 160 159 155 152 148 144 142 140 139 138 137 134 132 129 127 122 118 113 109 105 106 106 99 92 87 81 83 82 81 77 76 73
186 185 181 178 177 173 168 165 163 161 161 161 158 155 151 148 146 143 142 143 141 140 138 136 133 129 124 120 116 110 101 62 108 98 94 88 86 86 85 83 81 79 77
193 191 187 184 181 178 172 166 163 161 160 159 155 150 147 148 148 145 146 145 144 143 140 138 136 132 125 121 117 113 117 162 107 107 96 91 91 91 90 87 85 82 79
201 198 192 189 185 181 175 167 164 160 157 156 151 144 149 155 152 151 146 146 147 146 143 140 137 128 125 121 118 125 166 129 114 100 89 90 98 95 94 90 86 84 81
205 202 197 193 188 182 175 170 171 167 164 166 163 160 162 157 152 149 139 145 145 143 142 139 134 135 144 137 134 167 144 129 122 107 90 85 103 102 98 93 90 86 82
210 204 202 197 191 184 176 172 172 169 168 170 167 166 160 153 149 152 152 150 149 151 147 140 149 153 152 139 150 148 130 130 123 116 95 83 109 108 102 98 94 89 84
218 208 205 199 194 190 181 175 173 169 169 168 169 167 161 157 161 161 162 161 160 158 152 157 159 153 151 152 154 145 141 141 131 118 88 72 102 109 107 104 100 95 86
224 214 208 201 198 192 185 178 177 173 171 169 168 170 165 164 166 166 165 164 163 159 160 162 163 156 156 154 154 153 148 144 138 133 113 80 85 100 107 107 106 100 92
227 221 212 206 199 193 188 181 178 174 171 169 170 172 170 168 169 170 167 167 165 165 164 168 165 160 157 159 159 160 157 152 152 149 140 123 97 90 100 104 107 101 97
226 223 217 209 201 195 191 184 178 174 172 172 172 174 174 172 172 172 171 171 169 167 167 169 162 165 160 161 167 165 164 167 168 162 160 162 145 112 102 107 111 117 99
226 220 219 209 203 197 191 185 178 176 173 175 173 174 177 176 176 174 173 174 170 169 171 170 169 171 169 173 170 167 173 173 188 178 177 182 179 169 139 106 131 154 275
222 217 216 208 204 197 190 186 180 176 176 176 175 175 179 179 178 177 175 173 171 173 176 174 177 178 174 173 170 173 181 188 188 195 197 192 192 199 194 133 130 335 276
221 214 211 208 201 195 187 184 177 178 179 178 178 178 179 180 181 180 176 177 175 176 178 180 178 178 176 170 166 177 190 196 205 207 205 201 203 207 216 207 199 167 216
221 214 207 208 199 191 186 182 180 181 180 180 181 181 182 181 182 182 178 180 181 183 184 184 178 176 176 171 174 180 191 205 214 207 209 212 208 210 219 221 230 230 207
219 215 208 208 202 194 192 187 186 182 183 181 180 184 185 185 185 185 183 182 185 186 187 186 182 181 174 186 191 184 191 192 201 209 211 218 220 208 217 226 230 233 246
216 214 211 209 204 197 191 187 179 176 176 182 185 185 188 188 188 188 188 186 187 189 189 188 188 189 182 188 202 204 203 201 174 189 207 215 217 219 219 219 229 236 244
217 214 213 213 208 199 190 191 185 184 186 190 187 187 187 190 190 191 191 192 190 192 192 191 193 194 189 188 192 219 241 256 212 183 189 205 215 227 227 216 225 230 237
221 213 211 213 212 201 194 192 192 194 194 190 187 188 187 190 193 193 193 193 193 194 195 193 193 196 196 197 193 190 199 210 237 238 218 200 203 213 222 226 224 228 233
229 218 210 210 212 204 200 194 197 196 194 190 188 187 188 188 192 194 194 194 195 196 196 195 194 197 199 202 200 199 198 198 204 214 233 230 230 202 212 220 225 224 229